• Join FlightAware (Why Join?)
  • Login
  • US Flag 
04:57AM EDT


 

Airport Tracker/Info


-or-


 

Live Flight TrackerFlight Track Log ✈ EJA929 ✈ 21-Oct-2013 ✈ KLIT - KPDK

Flight Track Log - Related Links

Times and Time Zones

All times are in EDT time to prevent confusion due to time zone crossing. See the EJA929 flight status page for this flight to view local times or setup timezone preferences in your user account.

Time Position Orientation Groundspeed Altitude Reporting Facility
EDT Latitude Longitude Course Direction KTS MPH feet Rate Location/Type
12:00PM 34.7144 -92.2403 161° South 179 206 1,200  Level Memphis Center
12:01PM 34.6569 -92.2161 161° South 226 260 3,800 1,620 Climbing Memphis Center
12:02PM 34.6117 -92.1706 140° Southeast 248 285 4,200 660 Climbing Memphis Center
12:02PM 34.6047 -92.1639 142° Southeast 269 310 4,500 4,140 Climbing Memphis Center
12:03PM 34.5886 -92.0844 104° East 285 328 8,500 4,860 Climbing Memphis Center
12:03PM 34.5900 -92.0686 84° East 309 356 9,400 3,540 Climbing Memphis Center
12:04PM 34.5911 -91.9739 89° East 324 373 12,200 3,000 Climbing Memphis Center
12:05PM 34.5917 -91.8358 90° East 394 453 15,200 2,400 Climbing Memphis Center
12:06PM 34.6022 -91.6867 85° East 417 480 17,200 1,980 Climbing Memphis Center
12:07PM 34.6111 -91.5372 86° East 435 501 19,300 1,920 Climbing Memphis Center
12:08PM 34.6200 -91.3839 86° East 446 513 21,300 1,740 Climbing Memphis Center
12:09PM 34.6286 -91.2247 86° East 464 534 23,000 1,800 Climbing Memphis Center
12:10PM 34.6392 -91.0289 86° East 488 562 25,100 1,980 Climbing Memphis Center
12:11PM 34.6481 -90.8542 86° East 507 583 27,100 1,740 Climbing Memphis Center
12:12PM 34.6572 -90.6769 86° East 517 595 28,700 1,440 Climbing Memphis Center
12:13PM 34.6664 -90.4922 86° East 536 617 30,100 1,440 Climbing Memphis Center
12:14PM 34.6761 -90.3022 86° East 552 635 31,700 1,380 Climbing Memphis Center
12:15PM 34.6850 -90.1083 87° East 565 650 33,000 600 Climbing Memphis Center
12:16PM 34.6950 -89.8753 87° East 588 677 33,000  Level Memphis Center
12:17PM 34.7033 -89.6781 87° East 594 684 33,000  Level Memphis Center
12:18PM 34.7117 -89.4783 87° East 596 686 33,000  Level Memphis Center
12:19PM 34.7197 -89.2772 87° East 595 685 33,000  Level Memphis Center
12:20PM 34.7281 -89.0758 87° East 594 684 33,000  Level Memphis Center
12:21PM 34.7369 -88.8397 87° East 595 685 33,000  Level Memphis Center
12:22PM 34.7436 -88.6381 88° East 594 684 33,000  Level Memphis Center
12:23PM 34.7511 -88.4386 87° East 577 664 33,000  Level Memphis Center
12:25PM 34.7575 -88.2514 88° East 560 644 33,000  Level Memphis Center
12:26PM 34.7628 -88.0703 88° East 550 633 33,000  Level Memphis Center
12:27PM 34.7692 -87.8850 88° East 545 627 33,000  Level Memphis Center
12:28PM 34.7739 -87.7000 88° East 543 625 33,000  Level Memphis Center
12:29PM 34.7786 -87.4903 88° East 546 628 33,000  Level Memphis Center
12:30PM 34.7833 -87.3028 88° East 549 632 33,000  Level Memphis Center
12:31PM 34.7872 -87.1150 89° East 550 633 33,000  Level Memphis Center
12:32PM 34.7906 -86.9283 89° East 550 633 33,000 -600 Level Memphis Center
12:33PM 34.7947 -86.7264 89° East 549 632 31,800 -1,260 Descending Memphis Center
12:34PM 34.7842 -86.5492 94° East 527 606 30,400 -1,380 Descending Memphis Center
12:35PM 34.7553 -86.3728 101° East 526 605 29,000 -1,380 Descending Memphis Center
12:36PM 34.7347 -86.2303 100° East 528 608 27,900 -1,440 Descending Atlanta Center
12:37PM 34.7022 -86.0575 103° East 528 608 26,500 -1,500 Descending Atlanta Center
12:38PM 34.6442 -85.9022 114° Southeast 514 592 25,000 -1,500 Descending Atlanta Center
12:39PM 34.5714 -85.7417 119° Southeast 501 577 23,600 -1,920 Descending Atlanta Center
12:40PM 34.5086 -85.5942 117° Southeast 489 563 21,200 -2,520 Descending Atlanta Center
12:41PM 34.4478 -85.4494 117° Southeast 483 556 18,600 -2,520 Descending Atlanta Center
12:42PM 34.3908 -85.3150 117° Southeast 470 541 16,200 -2,340 Descending Atlanta Center
12:43PM 34.3461 -85.2061 116° Southeast 428 493 14,000 -2,100 Descending Atlanta Center
12:44PM 34.3011 -85.1000 117° Southeast 371 427 12,100 -1,860 Descending Atlanta Center
12:45PM 34.2539 -84.9964 119° Southeast 344 396 10,300 -1,740 Descending Atlanta Center
12:46PM 34.2169 -84.9081 117° Southeast 315 362 8,700 -1,200 Descending Atlanta Center
12:47PM 34.1633 -84.8347 131° Southeast 293 337 8,000 -1,200 Descending Atlanta Center
12:48PM 34.1242 -84.7514 120° Southeast 281 323 6,400 -1,380 Descending Atlanta Center
12:49PM 34.0933 -84.6683 114° Southeast 274 315 5,300 -720 Descending Atlanta Center
12:50PM 34.0664 -84.5931 113° Southeast 255 293 5,000 -360 Descending Atlanta Center
12:51PM 34.0397 -84.5225 115° Southeast 234 269 4,600 -660 Descending Atlanta Center
12:52PM 34.0169 -84.4622 114° Southeast 228 262 3,700 -540 Descending Atlanta Center
12:53PM 33.9731 -84.4169 139° Southeast 212 244 3,600 -120 Descending Atlanta Center
12:54PM 33.9169 -84.3867 156° South 211 243 3,500 -540 Descending Atlanta Center
12:55PM 33.8500 -84.3500 156° South 168 193 2,300 -900 Descending Atlanta TRACON
12:57PM 33.8667 -84.3000 133° Southeast  Level FlightAware Approximate
01:04PM 33.8756 -84.3020 133° Southeast  Level Estimated
01:05PM 33.8756 -84.3020 133° Southeast  Level Estimated